LiveATC.Net - Listen to live air traffic control over the Internet!


ICAO: KRDK  IATA: RDK   Airport: Red Oak Municipal Airport
City: Red Oak   State/Province: Iowa
Country: United States   Continent: North America
KRDK METAR Weather: KRDK 120615Z AUTO 25003KT 10SM CLR M05/M06 A2983 RMK AO2
KRDK Flight Activity (FlightAware)
KRDK Airport Info   (AirNav) (iFlightPlanner)
KRDK VFR Sectional Chart   (iFlightPlanner) 
KRDK IFR Low Chart   (iFlightPlanner) 

KRDK CTAF
Feed Status: DOWN
Last heard on: 2018-11-19 22:10:02 (22 days 8 hours 22 minutes ago)
KRDK CTAF Audio Archives
FacilityFrequency
Red Oak CTAF122.800

NOTICE

Unauthorized use prohibited. See LiveATC.net Terms of Service


Find LiveATC Audio Streams


Airport/ARTCC Code

Frequency Search
(e.g., 124.400, 128.75)
Site-wide search
 


Browse LiveATC Feeds
Top 50 LiveATC Feeds
Bad Weather Areas

LiveATC FAQ
Offer a LiveATC Feed
Contact LiveATC.net
Press Inquiries

LiveATC on iPhone
LiveATC on Android

Windows Phone
Windows 8/10

LiveATC Mobile
(Mobile browser)

ATC Audio Archives
Interesting Recordings

LiveATC Forums


Home Page
About LiveATC.net
Make a Donation
Terms of Use
Privacy Policy

Canadian Air Freqs

AIRMETs/SIGMETs

FAA Airport Status
Nat'l Airspace Status
Arrival Demand Charts


Server Software By:
Icecast.org
Liquidsoap